Eureka, Nunavut

11:16 PM CDT on August 18, 2017 (GMT -0500)
Eureka

Weather History for CWEU - February, 2013

Change the Weather History Date:

Monday, February 4, 2013

  Actual Average Record
Temperature  
Mean Temperature -46 °F -  
Max Temperature -43 °F -31 °F -10 °F (2017)
Min Temperature -50 °F -44 °F -56 °F (2015)
Degree Days  
Heating Degree Days 112    
Moisture  
Dew Point -51 °F    
Average Humidity 77    
Maximum Humidity 90    
Minimum Humidity 63    
Precipitation  
Precipitation 0.00 in 0.00 in - ()
Sea Level Pressure  
Sea Level Pressure 29.83 in    
Wind  
Wind Speed 0 mph ()    
Max Wind Speed 2 mph    
Max Gust Speed -    
Visibility 15.0 miles    
Events Snow    
Averages and records for this station are not official NWS values.
T = Trace of Precipitation, MM = Missing Value Source: Averaged Metar Reports

Daily Weather History Graph

Daily Weather History Graph

Search for Another Location

Airport or City:

Trip Planner

Search our weather history database for the weather conditions in past years. The results will help you decide how hot, cold, wet, or windy it might be!

Date:

Astronomy

Dec. 31, 1969 Rise Set
Actual Time Sun does not set Sun does not set
Civil Twilight 11:49 AM CST 12:08 PM CST
Nautical Twilight 7:28 AM CST 4:29 PM CST
Astronomical Twilight 5:07 AM CST 6:51 PM CST
Moon No Moon Rise No Moon Set
Length of Visible Light 0h 19m
Length of Day
0h 00m
Last Quarter, 37% of the Moon is Illuminated
Feb 4
Last Quarter
Feb 10
New
Feb 17
First Quarter
Feb 25
Full
Mar 4
Last Quarter

Hourly Weather History & Observations

Time (CST) Temp. Dew Point Humidity Pressure Visibility Wind Dir Wind Speed Gust Speed Precip Events Conditions
12:00 AM -48 °F -52 °F 67% 29.59 in 15 mi Calm Calm - - Snow Snow
12:00 AM -49.0 °F -50.8 °F 90% 29.59 in 15.0 mi Calm Calm - N/A   Clear
1:00 AM -49.0 °F -52.6 °F 81% 29.61 in 15.0 mi Calm Calm - N/A   Clear
2:00 AM -49.0 °F - N/A% 29.62 in 15.0 mi Calm Calm - N/A   Clear
3:00 AM -49.0 °F -50.8 °F 90% 29.65 in 15.0 mi Calm Calm - N/A   Clear
5:00 AM -49.0 °F - N/A% 29.69 in 15.0 mi Calm Calm - N/A   Clear
6:00 AM -49 °F - % 29.69 in 15 mi Calm Calm - - Snow Snow
6:00 AM -49.0 °F - N/A% 29.69 in 15.0 mi Calm Calm - N/A   Clear
7:00 AM -50.8 °F - N/A% 29.72 in 15.0 mi Calm Calm - N/A   Clear
8:00 AM -49.0 °F -52.6 °F 81% 29.74 in 15.0 mi Calm Calm - N/A   Clear
9:00 AM -49.0 °F -50.8 °F 90% 29.77 in 15.0 mi Calm Calm - N/A   Partly Cloudy
10:00 AM -47.2 °F -50.8 °F 81% 29.80 in 15.0 mi Calm Calm - N/A   Partly Cloudy
11:00 AM -47.2 °F -50.8 °F 81% 29.82 in 15.0 mi Calm Calm - N/A   Partly Cloudy
12:00 PM -46 °F -50 °F 64% 29.85 in 37 mi Calm Calm - - Snow Snow
12:00 PM -45.4 °F -50.8 °F 74% 29.85 in 40.0 mi Calm Calm - N/A   Partly Cloudy
1:00 PM -45.4 °F -50.8 °F 74% 29.88 in 40.0 mi Calm Calm - N/A   Partly Cloudy
2:00 PM -45.4 °F -50.8 °F 74% 29.91 in 40.0 mi Calm Calm - N/A   Clear
3:00 PM -43.6 °F -49.0 °F 74% 29.94 in 40.0 mi Calm Calm - N/A   Clear
4:00 PM -47.2 °F -50.8 °F 81% 29.97 in 15.0 mi SE 2.3 mph - N/A   Clear
5:00 PM -47.2 °F -50.8 °F 81% 30.00 in 15.0 mi Calm Calm - N/A   Clear
6:00 PM -46 °F -50 °F 63% 30.03 in 15 mi Calm Calm - - Snow Snow
6:00 PM -47.2 °F -50.8 °F 81% 30.03 in 15.0 mi Calm Calm - N/A   Clear
7:00 PM -45.4 °F -50.8 °F 74% 30.05 in 15.0 mi Calm Calm - N/A   Clear
8:00 PM -45.4 °F -50.8 °F 74% 30.08 in 15.0 mi Calm Calm - N/A   Clear
9:00 PM -45.4 °F -50.8 °F 74% 30.10 in 15.0 mi East 2.3 mph - N/A   Clear